Satellite-Ground Cal/Val Site Overpasses Predictions

Prediction of Satellite NPP Overpassing Cal/Val Site: Antarctic Dome C

Ground Cal/Val Site Location: Latitude: -75.10, Longitude: 123.35; Satellite-Ground Site NADIR distance within 100 km.

Table of predicted overpasses for the next 14.0 days since TLE Epoch: 10/9/2018
Interval Starting Time Ending Time Minimum Distance Time Minimum Distance (km)
1 10/09/2018 15:08:02 10/09/2018 15:08:12 10/09/2018 15:08:07 93.20
2 10/10/2018 14:49:03 10/10/2018 14:49:32 10/10/2018 14:49:17 18.15
3 10/12/2018 07:31:51 10/12/2018 07:32:20 10/12/2018 07:32:06 3.72
4 10/15/2018 14:55:16 10/15/2018 14:55:45 10/15/2018 14:55:30 18.29
5 10/16/2018 14:36:33 10/16/2018 14:36:46 10/16/2018 14:36:40 88.74
6 10/17/2018 07:38:04 10/17/2018 07:38:31 10/17/2018 07:38:18 37.80
7 10/18/2018 07:19:17 10/18/2018 07:19:37 10/18/2018 07:19:27 72.36
8 10/20/2018 15:01:29 10/20/2018 15:01:53 10/20/2018 15:01:41 55.14
9 10/21/2018 14:42:38 10/21/2018 14:43:03 10/21/2018 14:42:51 54.10
10 10/22/2018 07:44:19 10/22/2018 07:44:39 10/22/2018 07:44:29 72.82


NCC Satellite Cal/Val Overpasses Prediction Service
